Terminal Aerodrome Forecast
Issued by NWS Medford, OR

Home | Current Version | Previous Version | Text Only | Print | Product List | Glossary On
Versions: 1 2 3 4 5 6 7 8 9 10 11 12 13
121
FTUS46 KMFR 122326
TAFMFR
TAF
KMFR 122326Z 1300/1324 31010KT P6SM -SHRA BKN040 OVC070
     FM130200 30005KT P6SM VCSH BKN040 BKN070
     FM130400 14006KT P6SM SCT020 BKN035
     FM130800 VRB03KT 6SM BR OVC020=

USA.gov is the U.S. government's official web portal to all federal, state and local government web resources and services.